MLD101 LUKK-LYTV

Flight info

Callsign MLD101
Flight time N/A
Altitude 32000
Route N0510F320 POGAV BCU ANASA CICEV POD
Aircraft T154/M-G/L

Departure

Time N/A
Airport Chişinău International Airport (LUKK)

Arrival

Time 2026-05-06 08:52
Airport Tivat Airport (LYTV)
Time Latitude Longitude Altitude Speed Heading
2026-05-06 08:11 44.02008 22.01977 32003 ft 395 kts 235°
2026-05-06 08:11 43.99222 21.96887 32003 ft 395 kts 235°
2026-05-06 08:12 43.95907 21.90837 32003 ft 395 kts 234°
2026-05-06 08:12 43.92575 21.84763 32003 ft 395 kts 234°
2026-05-06 08:13 43.89245 21.78698 32003 ft 395 kts 234°
2026-05-06 08:13 43.85910 21.72631 32003 ft 395 kts 234°
2026-05-06 08:14 43.82573 21.66568 32003 ft 395 kts 234°
2026-05-06 08:14 43.79254 21.60545 32003 ft 395 kts 234°
2026-05-06 08:15 43.75920 21.54499 32003 ft 395 kts 234°
2026-05-06 08:15 43.72579 21.48447 32003 ft 395 kts 234°
2026-05-06 08:16 43.69260 21.42443 32003 ft 395 kts 234°
2026-05-06 08:16 43.65918 21.36403 32003 ft 395 kts 234°
2026-05-06 08:17 43.62561 21.30384 32003 ft 395 kts 234°
2026-05-06 08:17 43.59175 21.24452 32003 ft 395 kts 234°
2026-05-06 08:18 43.55756 21.18508 32003 ft 395 kts 233°
2026-05-06 08:18 43.52331 21.12571 32003 ft 395 kts 233°
2026-05-06 08:19 43.48896 21.06625 32003 ft 395 kts 233°
2026-05-06 08:19 43.45490 21.00735 32003 ft 395 kts 233°
2026-05-06 08:20 43.42056 20.94797 32003 ft 395 kts 234°
2026-05-06 08:20 43.38662 20.88896 32003 ft 395 kts 233°
2026-05-06 08:21 43.35232 20.82973 31997 ft 396 kts 233°
2026-05-06 08:21 43.31777 20.77020 31640 ft 399 kts 233°
2026-05-06 08:22 43.30045 20.74037 31230 ft 399 kts 233°
2026-05-06 08:22 43.28317 20.71065 30766 ft 397 kts 233°
2026-05-06 08:22 43.26630 20.68143 30298 ft 394 kts 234°
2026-05-06 08:22 43.24948 20.65190 29822 ft 391 kts 234°
2026-05-06 08:23 43.23288 20.62260 29347 ft 388 kts 234°
2026-05-06 08:23 43.21629 20.59359 28871 ft 385 kts 234°
2026-05-06 08:23 43.19977 20.56484 28395 ft 382 kts 234°
2026-05-06 08:23 43.18332 20.53642 27919 ft 379 kts 234°
2026-05-06 08:24 43.16712 20.50813 27489 ft 375 kts 234°
2026-05-06 08:24 43.15120 20.48015 27123 ft 370 kts 234°
2026-05-06 08:24 43.13554 20.45258 26752 ft 364 kts 234°
2026-05-06 08:24 43.12002 20.42522 26345 ft 363 kts 234°
2026-05-06 08:25 43.10448 20.39809 25973 ft 361 kts 234°
2026-05-06 08:25 43.08883 20.37119 25587 ft 360 kts 233°
2026-05-06 08:25 43.07321 20.34456 25201 ft 358 kts 233°
2026-05-06 08:25 43.05968 20.32137 24863 ft 356 kts 234°
2026-05-06 08:26 43.04613 20.29787 24990 ft 341 kts 234°
2026-05-06 08:26 43.03257 20.27436 25749 ft 321 kts 234°
2026-05-06 08:26 43.01906 20.25120 26446 ft 305 kts 234°
2026-05-06 08:26 43.00604 20.22908 26836 ft 300 kts 234°
2026-05-06 08:27 42.99310 20.20722 26869 ft 306 kts 234°
2026-05-06 08:27 42.97942 20.18408 26623 ft 320 kts 233°
2026-05-06 08:27 42.96528 20.16014 26284 ft 336 kts 233°
2026-05-06 08:27 42.95034 20.13479 26063 ft 347 kts 233°
2026-05-06 08:28 42.93513 20.10901 26141 ft 348 kts 233°
2026-05-06 08:28 42.92003 20.08347 26524 ft 340 kts 233°
2026-05-06 08:28 42.90539 20.05884 27036 ft 328 kts 233°
2026-05-06 08:28 42.89122 20.03509 27478 ft 319 kts 233°
2026-05-06 08:29 42.87729 20.01181 27723 ft 316 kts 233°
2026-05-06 08:29 42.86344 19.98868 27740 ft 321 kts 233°
2026-05-06 08:29 42.84912 19.96476 27593 ft 330 kts 233°
2026-05-06 08:29 42.83438 19.94009 27406 ft 340 kts 233°
2026-05-06 08:30 42.81932 19.91484 27322 ft 346 kts 233°
2026-05-06 08:30 42.80415 19.88941 27439 ft 345 kts 233°
2026-05-06 08:30 42.78911 19.86425 27736 ft 339 kts 233°
2026-05-06 08:30 42.77433 19.83959 28086 ft 331 kts 233°
2026-05-06 08:31 42.75984 19.81549 28361 ft 327 kts 233°
2026-05-06 08:31 42.74564 19.79190 28491 ft 326 kts 233°
2026-05-06 08:31 42.71644 19.74336 28377 ft 337 kts 233°
2026-05-06 08:32 42.68627 19.69316 28300 ft 345 kts 233°
2026-05-06 08:32 42.67108 19.66790 28462 ft 343 kts 233°
2026-05-06 08:32 42.65603 19.64292 28717 ft 338 kts 233°
2026-05-06 08:33 42.64121 19.61837 28961 ft 333 kts 233°
2026-05-06 08:33 42.62672 19.59441 29109 ft 332 kts 233°
2026-05-06 08:33 42.59718 19.54560 29091 ft 338 kts 233°
2026-05-06 08:34 42.55165 19.47032 29142 ft 345 kts 233°
2026-05-06 08:34 42.53653 19.44537 29343 ft 341 kts 233°
2026-05-06 08:35 42.52173 19.42081 29523 ft 339 kts 234°
2026-05-06 08:35 42.50545 19.39701 29462 ft 354 kts 221°
2026-05-06 08:35 42.48347 19.38016 29219 ft 374 kts 206°
2026-05-06 08:35 42.45822 19.36869 28813 ft 388 kts 199°
2026-05-06 08:36 42.43180 19.35961 28331 ft 391 kts 197°
2026-05-06 08:36 42.40576 19.35120 27841 ft 389 kts 197°
2026-05-06 08:36 42.37969 19.34177 27340 ft 385 kts 200°
2026-05-06 08:36 42.35434 19.33032 26838 ft 381 kts 204°
2026-05-06 08:37 42.33026 19.31601 26345 ft 375 kts 210°
2026-05-06 08:37 42.30805 19.29803 25866 ft 369 kts 218°
2026-05-06 08:37 42.28844 19.27599 25389 ft 364 kts 227°
2026-05-06 08:37 42.27207 19.25078 24918 ft 358 kts 237°
2026-05-06 08:38 42.26019 19.22153 24449 ft 353 kts 245°
2026-05-06 08:38 42.24847 19.19247 23981 ft 351 kts 242°
2026-05-06 08:38 42.23579 19.16428 23573 ft 348 kts 240°
2026-05-06 08:38 42.22263 19.13708 23210 ft 343 kts 238°
2026-05-06 08:39 42.20934 19.11070 22857 ft 338 kts 238°
2026-05-06 08:39 42.19622 19.08470 22506 ft 332 kts 238°
2026-05-06 08:39 42.18607 19.05744 22147 ft 322 kts 255°
2026-05-06 08:39 42.18267 19.02843 21807 ft 315 kts 267°
2026-05-06 08:40 42.18336 18.99916 21458 ft 308 kts 275°
2026-05-06 08:40 42.18625 18.97090 21138 ft 301 kts 279°
2026-05-06 08:40 42.19020 18.94348 20834 ft 295 kts 281°
2026-05-06 08:40 42.19437 18.91670 20532 ft 288 kts 281°
2026-05-06 08:41 42.19808 18.89041 20234 ft 283 kts 279°
2026-05-06 08:41 42.20305 18.86506 19925 ft 279 kts 293°
2026-05-06 08:41 42.21441 18.84456 19629 ft 277 kts 312°
2026-05-06 08:41 42.22965 18.82877 19332 ft 276 kts 323°
2026-05-06 08:42 42.24655 18.81672 19032 ft 273 kts 331°
2026-05-06 08:42 42.26400 18.80713 18731 ft 269 kts 334°
2026-05-06 08:42 42.28147 18.79871 18428 ft 263 kts 336°
2026-05-06 08:42 42.29866 18.79112 18125 ft 257 kts 338°
2026-05-06 08:43 42.31548 18.78403 17819 ft 250 kts 339°
2026-05-06 08:43 42.33214 18.77857 17516 ft 243 kts 341°
2026-05-06 08:43 42.34805 18.77304 17214 ft 234 kts 338°
2026-05-06 08:43 42.36314 18.76570 16909 ft 225 kts 331°
2026-05-06 08:44 42.37674 18.75606 16604 ft 216 kts 323°
2026-05-06 08:44 42.38855 18.74399 16299 ft 208 kts 313°
2026-05-06 08:44 42.39824 18.72989 15997 ft 201 kts 304°
2026-05-06 08:44 42.40597 18.71478 15709 ft 196 kts 298°
2026-05-06 08:45 42.41266 18.69877 15308 ft 198 kts 294°
2026-05-06 08:45 42.41691 18.68074 14684 ft 206 kts 276°
2026-05-06 08:45 42.41528 18.66084 13777 ft 226 kts 252°
2026-05-06 08:45 42.40590 18.64223 12610 ft 256 kts 226°
2026-05-06 08:46 42.38974 18.63003 11386 ft 278 kts 204°
2026-05-06 08:46 42.36927 18.62641 9716 ft 316 kts 180°
2026-05-06 08:46 42.34783 18.63351 8414 ft 328 kts 159°
2026-05-06 08:46 42.32775 18.64976 6857 ft 342 kts 148°
2026-05-06 08:47 42.30835 18.66822 5873 ft 334 kts 146°
2026-05-06 08:47 42.29002 18.68631 5065 ft 320 kts 144°
2026-05-06 08:47 42.27190 18.70360 4118 ft 314 kts 145°
2026-05-06 08:47 42.25464 18.72018 3473 ft 297 kts 129°
2026-05-06 08:48 42.24541 18.74234 3359 ft 264 kts 95°
2026-05-06 08:48 42.24865 18.76683 2230 ft 276 kts 64°
2026-05-06 08:48 42.26015 18.78655 1688 ft 263 kts 28°
2026-05-06 08:48 42.27643 18.79518 1495 ft 241 kts
2026-05-06 08:49 42.29233 18.79748 1369 ft 220 kts 349°
2026-05-06 08:49 42.30687 18.79477 1197 ft 205 kts 336°
2026-05-06 08:49 42.31985 18.78847 1006 ft 195 kts 329°
2026-05-06 08:49 42.33162 18.77982 841 ft 191 kts 330°
2026-05-06 08:50 42.34382 18.77155 721 ft 204 kts 334°
2026-05-06 08:50 42.35632 18.76436 683 ft 189 kts 335°
2026-05-06 08:50 42.36834 18.75775 549 ft 184 kts 336°
2026-05-06 08:50 42.37994 18.75066 402 ft 182 kts 328°
2026-05-06 08:51 42.38994 18.74096 226 ft 176 kts 311°
2026-05-06 08:51 42.39852 18.73050 28 ft 161 kts 315°
2026-05-06 08:51 42.40475 18.72300 28 ft 84 kts 323°
2026-05-06 08:51 42.40858 18.71880 28 ft 52 kts 319°
2026-05-06 08:52 42.40968 18.71815 28 ft 14 kts 18°
2026-05-06 08:52 42.41080 18.71785 28 ft 23 kts 310°
2026-05-06 08:52 42.41174 18.71648 28 ft 1 kts 322°
2026-05-06 08:52 42.41197 18.71629 28 ft 0 kts 350°
2026-05-06 08:53 42.41212 18.71629 28 ft 0 kts